Weather History for Texarkana, AR

Change the Weather History Date:

Wednesday, November 16, 2011

  Actual Average Record
Temperature  
Mean Temperature 55 °F 54 °F  
Max Temperature 66 °F 64 °F 85 °F (1938)
Min Temperature 43 °F 44 °F 18 °F (1932)
Degree Days  
Heating Degree Days 10 11  
Month to date heating degree days 91 144  
Since 1 July heating degree days 177 262  
Cooling Degree Days 0 0  
Month to date cooling degree days 34 14  
Year to date cooling degree days 2956 2202  
Growing Degree Days 6 (Base 50)    
Moisture  
Dew Point 57 °F    
Average Humidity 80    
Maximum Humidity 100    
Minimum Humidity 59    
Precipitation  
Precipitation 0.10 in 0.16 in 4.06 in (1937)
Month to date precipitation 1.26 2.46  
Year to date precipitation 23.38 42.24  
Snow  
Snow 0.00 in - - ()
Month to date snowfall 0.0  
Since 1 July snowfall 0.0  
Since 1 September snowfall 0.0  
Snow Depth 0.00 in    
Sea Level Pressure  
Sea Level Pressure 29.87 in    
Wind  
Wind Speed 9 mph (NE)    
Max Wind Speed 21 mph    
Max Gust Speed 26 mph    
Visibility 9 miles    
Events Rain    
T = Trace of Precipitation, MM = Missing Value Source: NWS Daily Summary

Daily Weather History Graph

Daily Weather History Graph

Search for Another Location

Airport:

Trip Planner

Search our weather history database for the weather conditions in past years. The results will help you decide how hot, cold, wet, or windy it might be!

Date:

Astronomy

Nov. 16, 2011 Rise Set
Actual Time 6:48 AM CST 5:12 PM CST
Civil Twilight 6:21 AM CST 5:39 PM CST
Nautical Twilight 5:51 AM CST 6:09 PM CST
Astronomical Twilight 5:22 AM CST 6:38 PM CST
Moon 10:24 PM CST (11/16) 11:25 AM CST (11/16)
Length of Visible Light 11h 17m
Length of Day
10h 24m
Waning Gibbous, 70% of the Moon is Illuminated
Nov 16
Waning Gibbous
Nov 18
Last Quarter
Nov 25
New
Dec 2
First Quarter
Dec 10
Full

Hourly Weather History & Observations

Time (CST) Temp. Windchill Dew Point Humidity Pressure Visibility Wind Dir Wind Speed Gust Speed Precip Events Conditions
12:00 AM 66.2 °F - 64.4 °F 94% 29.73 in 10.0 mi North 6.9 mph - N/A   Overcast
12:53 AM 64.4 °F - 64.4 °F 100% 29.73 in 9.0 mi Calm Calm - N/A Rain Light Rain
1:53 AM 64.4 °F - 64.4 °F 100% 29.73 in 5.0 mi Calm Calm - N/A   Overcast
2:37 AM 64.4 °F - 64.4 °F 100% 29.73 in 6.0 mi Calm Calm - N/A   Mostly Cloudy
2:53 AM 64.0 °F - 64.0 °F 100% 29.73 in 5.0 mi ENE 3.5 mph - N/A   Overcast
3:53 AM 64.9 °F - 64.0 °F 97% 29.73 in 9.0 mi Calm Calm - N/A   Overcast
4:04 AM 64.4 °F - 64.4 °F 100% 29.73 in 8.0 mi Calm Calm - N/A   Overcast
4:28 AM 64.4 °F - 64.4 °F 100% 29.74 in 6.0 mi Calm Calm - N/A   Overcast
4:44 AM 64.4 °F - 64.4 °F 100% 29.74 in 6.0 mi Calm Calm - N/A   Overcast
4:53 AM 64.9 °F - 64.0 °F 97% 29.74 in 5.0 mi North 3.5 mph - N/A   Overcast
5:00 AM 64.4 °F - 64.4 °F 100% 29.75 in 6.0 mi North 3.5 mph - N/A   Overcast
5:53 AM 62.6 °F - 62.6 °F 100% 29.77 in 9.0 mi NE 10.4 mph - N/A   Overcast
6:16 AM 62.6 °F - 62.6 °F 100% 29.78 in 10.0 mi NE 9.2 mph - N/A   Mostly Cloudy
6:35 AM 62.6 °F - 62.6 °F 100% 29.80 in 10.0 mi NE 6.9 mph - N/A   Overcast
6:53 AM 63.0 °F - 62.1 °F 97% 29.81 in 10.0 mi NNE 6.9 mph - N/A   Overcast
7:53 AM 62.6 °F - 60.8 °F 94% 29.84 in 5.0 mi NE 16.1 mph 21.9 mph N/A Rain Light Rain
8:14 AM 62.6 °F - 59.0 °F 88% 29.85 in 10.0 mi ENE 12.7 mph 19.6 mph 0.00 in   Overcast
8:26 AM 62.6 °F - 59.0 °F 88% 29.86 in 10.0 mi ENE 10.4 mph - 0.00 in   Overcast
8:53 AM 62.1 °F - 59.0 °F 90% 29.87 in 10.0 mi ENE 11.5 mph - 0.00 in   Overcast
9:53 AM 62.6 °F - 57.2 °F 82% 29.90 in 10.0 mi East 11.5 mph - N/A   Overcast
10:05 AM 62.6 °F - 57.2 °F 82% 29.90 in 10.0 mi ENE 5.8 mph 16.1 mph N/A   Overcast
10:13 AM 62.6 °F - 57.2 °F 82% 29.90 in 10.0 mi NE 9.2 mph - N/A   Overcast
10:53 AM 63.0 °F - 57.0 °F 81% 29.92 in 10.0 mi East 8.1 mph - N/A   Overcast
11:05 AM 62.6 °F - 57.2 °F 82% 29.92 in 10.0 mi ENE 9.2 mph - N/A   Overcast
11:53 AM 63.0 °F - 57.0 °F 81% 29.91 in 10.0 mi ENE 8.1 mph - N/A   Overcast
12:53 PM 62.1 °F - 55.9 °F 80% 29.91 in 10.0 mi NE 10.4 mph - N/A   Overcast
1:53 PM 62.1 °F - 55.9 °F 80% 29.93 in 10.0 mi NE 6.9 mph - N/A   Overcast
2:39 PM 59.0 °F - 57.2 °F 94% 29.94 in 5.0 mi NE 8.1 mph - 0.01 in Rain Light Rain
2:53 PM 57.9 °F - 55.9 °F 93% 29.94 in 4.0 mi NNE 13.8 mph - 0.01 in Rain Light Rain
3:42 PM 57.2 °F - 55.4 °F 94% 29.97 in 10.0 mi NE 8.1 mph - 0.00 in   Overcast
3:53 PM 57.9 °F - 55.0 °F 90% 29.97 in 10.0 mi NE 9.2 mph - 0.00 in   Overcast
4:44 PM 57.2 °F - 51.8 °F 82% 30.00 in 10.0 mi NE 9.2 mph - 0.00 in   Overcast
4:53 PM 57.9 °F - 52.0 °F 81% 30.01 in 10.0 mi NE 8.1 mph - 0.00 in   Overcast
5:53 PM 57.0 °F - 45.0 °F 64% 30.06 in 10.0 mi NE 13.8 mph 20.7 mph N/A   Overcast
6:53 PM 55.0 °F - 44.1 °F 67% 30.12 in 10.0 mi North 15.0 mph 21.9 mph N/A   Overcast
7:53 PM 53.1 °F - 39.9 °F 61% 30.18 in 10.0 mi NNE 18.4 mph 26.5 mph N/A   Overcast
8:53 PM 48.9 °F - 39.9 °F 71% 30.21 in 10.0 mi NE 10.4 mph - 0.01 in Rain Light Rain
9:53 PM 48.9 °F - 41.0 °F 74% - 10.0 mi North 10.4 mph - 0.00 in   Mostly Cloudy
10:53 PM 46.9 °F - 39.0 °F 74% - 10.0 mi NE 4.6 mph - N/A   Partly Cloudy
11:53 PM 45.0 °F 43.5 °F 37.9 °F 76% - 10.0 mi North 3.5 mph - N/A   Clear